Location: Cabeza Gorda
(40.0667°N, 4.9667°W)
Time: 04:34:17
(UTC+00:00)

Nadezhda 3 Rocket - Pass Details

Date: 15 January 2026
Orbit: 956 x 997 km, 82.9° (Epoch: 14 February)

Event Time Altitude Azimuth Distance (km) Brightness Sun altitude
Rises 05:58:50 0° 354° (N) 3,673 6.8 -19.0°
Reaches altitude 10° 06:01:22 10° 357° (N) 2,728 6.2 -18.6°
Maximum altitude 06:07:37 72° 82° (E) 1,029 4.3 -17.4°
Drops below altitude 10° 06:13:53 10° 167° (SSE) 2,739 6.7 -16.2°
Sets 06:16:25 0° 169° (S) 3,688 7.4 -15.8°
